Weather History for Three Rivers, MI

Change the Weather History Date:

Sunday, July 28, 2013

  Actual Average Record
Temperature  
Mean Temperature 58 °F -  
Max Temperature 64 °F 83 °F 96 °F (1955)
Min Temperature 52 °F 59 °F 51 °F (1978)
Degree Days  
Heating Degree Days 7    
Growing Degree Days 8 (Base 50)    
Moisture  
Dew Point 50 °F    
Average Humidity 77    
Maximum Humidity 89    
Minimum Humidity 63    
Precipitation  
Precipitation 0.00 in - - ()
Sea Level Pressure  
Sea Level Pressure 29.92 in    
Wind  
Wind Speed 6 mph (WSW)    
Max Wind Speed 16 mph    
Max Gust Speed 21 mph    
Visibility 10 miles    
Events Rain    
Averages and records for this station are not official NWS values.
T = Trace of Precipitation, MM = Missing Value Source: NWS Daily Summary

Daily Weather History Graph

Daily Weather History Graph

Search for Another Location

Airport:

Trip Planner

Search our weather history database for the weather conditions in past years. The results will help you decide how hot, cold, wet, or windy it might be!

Date:

Astronomy

Jul. 28, 2013 Rise Set
Actual Time 6:32 AM EDT 9:04 PM EDT
Civil Twilight 6:00 AM EDT 9:36 PM EDT
Nautical Twilight 5:20 AM EDT 10:16 PM EDT
Astronomical Twilight 4:35 AM EDT 11:01 PM EDT
Moon No Moon Rise 1:21 PM EDT (7/28)
Length of Visible Light 15h 36m
Length of Day
14h 32m
Waning Gibbous, 61% of the Moon is Illuminated
Jul 28
Waning Gibbous
Jul 29
Last Quarter
Aug 6
New
Aug 14
First Quarter
Aug 20
Full

Hourly Weather History & Observations

Time (EDT) Temp. Dew Point Humidity Pressure Visibility Wind Dir Wind Speed Gust Speed Precip Events Conditions
12:14 AM 54.3 °F 49.8 °F 85% 29.90 in 10.0 mi SSW 4.6 mph - N/A   Mostly Cloudy
12:34 AM 53.2 °F 48.4 °F 84% 29.89 in 10.0 mi SSW 3.5 mph - N/A   Scattered Clouds
12:54 AM 52.7 °F 48.2 °F 85% 29.89 in 10.0 mi South 3.5 mph - N/A   Scattered Clouds
1:14 AM 52.3 °F 48.6 °F 87% 29.88 in 10.0 mi SSW 3.5 mph - N/A   Scattered Clouds
1:34 AM 52.2 °F 48.6 °F 88% 29.88 in 10.0 mi SSW 3.5 mph - N/A   Mostly Cloudy
1:54 AM 53.6 °F 50.0 °F 88% 29.88 in 10.0 mi SSW 3.5 mph - N/A   Overcast
2:13 AM 53.1 °F 49.6 °F 88% 29.87 in 10.0 mi SSW 5.8 mph - N/A   Scattered Clouds
2:34 AM 54.0 °F 49.3 °F 84% 29.87 in 10.0 mi SW 5.8 mph - N/A   Scattered Clouds
2:54 AM 54.0 °F 49.3 °F 84% 29.87 in 10.0 mi SW 6.9 mph - N/A   Mostly Cloudy
3:13 AM 55.0 °F 49.1 °F 80% 29.87 in 10.0 mi SW 6.9 mph - N/A   Mostly Cloudy
3:34 AM 55.8 °F 48.6 °F 77% 29.86 in 10.0 mi SW 6.9 mph - N/A   Overcast
3:54 AM 55.6 °F 48.6 °F 77% 29.86 in 10.0 mi SW 4.6 mph - N/A   Overcast
4:13 AM 55.9 °F 47.5 °F 73% 29.86 in 10.0 mi SW 5.8 mph - N/A   Overcast
4:34 AM 56.1 °F 47.3 °F 72% 29.86 in 10.0 mi SW 6.9 mph - N/A   Overcast
4:54 AM 56.3 °F 47.1 °F 71% 29.85 in 10.0 mi WSW 8.1 mph - N/A   Overcast
5:13 AM 56.3 °F 47.3 °F 72% 29.85 in 10.0 mi WSW 5.8 mph - N/A   Overcast
5:34 AM 55.8 °F 46.9 °F 72% 29.86 in 10.0 mi WSW 6.9 mph - N/A   Scattered Clouds
5:54 AM 55.4 °F 46.9 °F 73% 29.86 in 10.0 mi WSW 9.2 mph - N/A   Clear
6:13 AM 54.5 °F 46.8 °F 75% 29.86 in 10.0 mi WSW 6.9 mph - N/A   Clear
6:34 AM 54.0 °F 46.8 °F 77% 29.87 in 10.0 mi WSW 4.6 mph - N/A   Clear
6:54 AM 53.6 °F 47.3 °F 79% 29.88 in 10.0 mi WSW 5.8 mph - N/A   Mostly Cloudy
7:14 AM 54.0 °F 47.3 °F 78% 29.88 in 10.0 mi WSW 5.8 mph - N/A   Overcast
7:34 AM 54.5 °F 47.7 °F 78% 29.89 in 10.0 mi WSW 8.1 mph - N/A   Overcast
7:53 AM 54.5 °F 47.8 °F 78% 29.89 in 10.0 mi SW 9.2 mph - N/A   Overcast
8:14 AM 55.0 °F 47.8 °F 77% 29.89 in 10.0 mi SW 9.2 mph - N/A   Overcast
8:34 AM 55.6 °F 48.4 °F 77% 29.89 in 10.0 mi SW 10.4 mph - N/A   Overcast
8:53 AM 55.6 °F 48.4 °F 77% 29.90 in 10.0 mi SW 11.5 mph - N/A   Overcast
9:14 AM 55.4 °F 48.4 °F 77% 29.90 in 10.0 mi SW 9.2 mph 17.3 mph N/A   Overcast
9:33 AM 56.3 °F 48.6 °F 75% 29.90 in 10.0 mi SW 11.5 mph - N/A   Overcast
9:54 AM 55.8 °F 48.7 °F 77% 29.91 in 10.0 mi SW 8.1 mph - N/A   Overcast
10:13 AM 55.9 °F 48.9 °F 77% 29.91 in 10.0 mi SW 8.1 mph 18.4 mph N/A   Overcast
10:34 AM 56.5 °F 49.5 °F 77% 29.91 in 10.0 mi SW 8.1 mph - N/A   Overcast
10:54 AM 57.0 °F 50.0 °F 77% 29.91 in 7.0 mi SSW 11.5 mph 16.1 mph N/A   Overcast
11:13 AM 56.8 °F 50.4 °F 79% 29.91 in 10.0 mi WSW 5.8 mph - N/A   Overcast
11:34 AM 59.5 °F 50.4 °F 72% 29.90 in 10.0 mi West 4.6 mph - N/A   Overcast
11:54 AM 60.3 °F 49.8 °F 68% 29.90 in 10.0 mi West 10.4 mph - N/A   Overcast
12:13 PM 61.2 °F 48.9 °F 64% 29.90 in 10.0 mi West 6.9 mph - N/A   Overcast
12:34 PM 57.4 °F 50.7 °F 78% 29.92 in 10.0 mi NW 13.8 mph - N/A Rain Rain
12:54 PM 54.9 °F 51.4 °F 88% 29.92 in 5.0 mi NW 5.8 mph - N/A Rain Light Rain
1:13 PM 56.1 °F 53.1 °F 89% 29.92 in 10.0 mi NW 6.9 mph - N/A   Overcast
1:34 PM 55.8 °F 52.7 °F 89% 29.92 in 5.0 mi WNW 6.9 mph - N/A Rain Light Rain
1:54 PM 56.5 °F 53.2 °F 89% 29.93 in 7.0 mi West 6.9 mph - N/A Rain Light Rain
2:14 PM 57.4 °F 53.6 °F 87% 29.92 in 10.0 mi West 6.9 mph - N/A   Overcast
2:34 PM 58.1 °F 53.2 °F 84% 29.93 in 10.0 mi WSW 4.6 mph - N/A   Overcast
2:53 PM 59.2 °F 53.4 °F 81% 29.93 in 10.0 mi West 10.4 mph - N/A   Overcast
3:14 PM 61.7 °F 52.7 °F 72% 29.93 in 10.0 mi West 9.2 mph - N/A   Overcast
3:34 PM 64.6 °F 52.9 °F 66% 29.93 in 10.0 mi WNW 12.7 mph 18.4 mph N/A   Overcast
3:53 PM 64.0 °F 52.2 °F 65% 29.94 in 10.0 mi NW 12.7 mph - N/A   Mostly Cloudy
4:14 PM 62.8 °F 52.2 °F 68% 29.95 in 10.0 mi West 8.1 mph - N/A   Mostly Cloudy
4:34 PM 63.1 °F 51.6 °F 66% 29.95 in 10.0 mi WNW 11.5 mph - N/A   Overcast
4:53 PM 63.9 °F 51.6 °F 64% 29.95 in 10.0 mi WNW 16.1 mph 20.7 mph N/A   Mostly Cloudy
5:14 PM 62.2 °F 50.2 °F 65% 29.96 in 10.0 mi West 9.2 mph 18.4 mph N/A   Mostly Cloudy
5:33 PM 62.6 °F 49.8 °F 63% 29.96 in 10.0 mi West 11.5 mph - N/A   Mostly Cloudy
5:54 PM 61.5 °F 50.9 °F 68% 29.97 in 10.0 mi West 10.4 mph - N/A   Overcast
6:14 PM 61.3 °F 51.3 °F 69% 29.97 in 10.0 mi West 8.1 mph - N/A   Overcast
6:33 PM 61.2 °F 51.1 °F 69% 29.98 in 10.0 mi West 10.4 mph - N/A   Overcast
6:54 PM 61.2 °F 51.3 °F 70% 29.98 in 10.0 mi West 8.1 mph - N/A   Scattered Clouds
7:14 PM 61.5 °F 51.4 °F 69% 29.98 in 10.0 mi West 5.8 mph - N/A   Clear
7:34 PM 61.0 °F 50.5 °F 68% 29.98 in 10.0 mi WNW 5.8 mph - N/A   Clear
7:54 PM 60.8 °F 50.9 °F 70% 29.99 in 10.0 mi WNW 5.8 mph - N/A   Clear
8:14 PM 60.4 °F 51.6 °F 73% 30.00 in 10.0 mi West 3.5 mph - N/A   Scattered Clouds
8:34 PM 59.4 °F 51.4 °F 75% 30.00 in 10.0 mi West 3.5 mph - N/A   Scattered Clouds
8:54 PM 59.0 °F 51.4 °F 76% 30.00 in 10.0 mi Calm Calm - N/A   Clear
9:13 PM 58.5 °F 51.3 °F 77% 30.00 in 10.0 mi Calm Calm - N/A   Scattered Clouds
9:34 PM 56.8 °F 52.3 °F 85% 30.00 in 10.0 mi South 3.5 mph - N/A   Mostly Cloudy
9:54 PM 56.7 °F 52.7 °F 87% 30.00 in 10.0 mi Calm Calm - N/A   Mostly Cloudy
10:13 PM 57.2 °F 52.7 °F 85% 30.00 in 10.0 mi Calm Calm - N/A   Scattered Clouds
10:34 PM 56.7 °F 52.9 °F 87% 30.01 in 10.0 mi Calm Calm - N/A   Scattered Clouds
10:54 PM 56.7 °F 52.9 °F 87% 30.01 in 10.0 mi Calm Calm - N/A   Clear
11:13 PM 56.5 °F 53.1 °F 88% 30.01 in 10.0 mi SW 3.5 mph - N/A   Clear
11:34 PM 56.3 °F 52.9 °F 88% 30.01 in 10.0 mi Calm Calm - N/A   Clear
11:54 PM 56.5 °F 52.9 °F 88% 30.01 in 10.0 mi SW 3.5 mph - N/A   Clear